This demonstration page uses our WeatherBlox Daily Observations layout. Learn more.

Left ArrowRight Arrow

41.12389, -100.76542

Hourly Observations for September 2, 2020

Temp ( °F °C ) Dew Point ( °F °C ) Humidity (%) Winds ( mph kmh ) Pressure ( in mb ) Visibility ( mi km ) Precip ( " mm )
12:53 am 00:53 Clear 53 11.7 43 6.1 69 69 Calm 29.91 1013 10 16 0.00 0.00
1:53 am 01:53 Clear 50 10 42 5.6 74 74 Calm 29.92 1013 10 16 0.00 0.00
2:53 am 02:53 Clear 49 9.4 41 5 74 74 Calm 29.93 1013 10 16 0.00 0.00
3:53 am 03:53 Clear 45 7.2 40 4.4 83 83 Calm 29.93 1014 10 16 0.00 0.00
4:53 am 04:53 Clear 46 7.8 40 4.4 79 79 Calm 29.94 1014 10 16 0.00 0.00
5:53 am 05:53 Clear 44 6.7 39 3.9 83 83 NW 5 7 29.94 1014 10 16 0.00 0.00
6:53 am 06:53 Clear 45 7.2 41 5 86 86 Calm 29.96 1014 10 16 0.00 0.00
7:53 am 07:53 Sunny 47 8.3 43 6.1 86 86 NW 3 6 29.98 1015 10 16 0.00 0.00
8:53 am 08:53 Sunny 56 13.3 46 7.8 70 70 NNW 5 7 29.99 1016 10 16 0.00 0.00
9:53 am 09:53 Sunny 64 17.8 50 10 60 60 VRB 3 6 29.98 1015 10 16 0.00 0.00
10:53 am 10:53 Sunny 76 24.4 52 11.1 43 43 Calm 29.97 1015 10 16 0.00 0.00
11:53 am 11:53 Sunny 83 28.3 44 6.7 25 25 S 8 13 29.95 1014 10 16 0.00 0.00
12:53 pm 12:53 Sunny 87 30.6 43 6.1 21 21 W 8 13 29.92 1013 10 16 0.00 0.00
1:53 pm 13:53 Sunny 88 31.1 43 6.1 21 21 Calm 29.89 1012 10 16 0.00 0.00
2:53 pm 14:53 Sunny 89 31.7 42 5.6 19 19 S 10 17 29.87 1011 10 16 0.00 0.00
3:53 pm 15:53 Sunny 91 32.8 44 6.7 20 20 SW 10 17 29.84 1010 10 16 0.00 0.00
4:53 pm 16:53 Sunny 91 32.8 43 6.1 19 19 SSW 10 17 29.81 1009 10 16 0.00 0.00
5:53 pm 17:53 Sunny 90 32.2 44 6.7 20 20 SW 7 11 29.79 1009 10 16 0.00 0.00
6:53 pm 18:53 Sunny 88 31.1 44 6.7 22 22 SSW 8 13 29.76 1008 10 16 0.00 0.00
7:53 pm 19:53 Sunny 77 25 51 10.6 40 40 SSE 6 9 29.76 1008 10 16 0.00 0.00
8:53 pm 20:53 Clear 75 23.9 47 8.3 37 37 S 7 11 29.75 1007 10 16 0.00 0.00
9:53 pm 21:53 Clear 69 20.6 46 7.8 44 44 SE 5 7 29.76 1008 10 16 0.00 0.00
10:53 pm 22:53 Clear 67 19.4 46 7.8 47 47 ESE 10 17 29.74 1007 10 16 0.00 0.00
11:53 pm 23:53 Clear 72 22.2 46 7.8 40 40 SE 5 7 29.72 1006 10 16 0.00 0.00

Powered by AerisWeather